Hourly Weather Barkweda

Today, 21 April, Wednesday

Time Temperature Precipitation Wind Pressure Humidity
00:00 +8°C° 0 mm 1 mps 751 mmHg 78%
01:00 +7°C° 0 mm 1 mps 750 mmHg 78%
02:00 +7°C° 0 mm 1 mps 750 mmHg 79%
03:00 +6°C° 0 mm 1 mps 750 mmHg 81%
04:00 +6°C° 0 mm 1 mps 750 mmHg 82%
05:00 +7°C° 0 mm 1 mps 750 mmHg 77%
06:00 +8°C° 0 mm 2 mps 750 mmHg 71%
07:00 +9°C° 0 mm 2 mps 750 mmHg 66%
08:00 +10°C° 0 mm 2 mps 750 mmHg 60%
09:00 +13°C° 0 mm 2 mps 750 mmHg 53%
10:00 +14°C° 0 mm 2 mps 749 mmHg 47%
11:00 +14°C° 0 mm 3 mps 749 mmHg 45%
12:00 +14°C° 0 mm 3 mps 749 mmHg 43%
13:00 +16°C° 0 mm 3 mps 749 mmHg 41%
14:00 +16°C° 0 mm 3 mps 748 mmHg 43%
15:00 +16°C° 0 mm 3 mps 748 mmHg 44%
16:00 +16°C° 0 mm 3 mps 748 mmHg 45%
17:00 +13°C° 0.1 mm 3 mps 748 mmHg 54%
18:00 +12°C° 0.1 mm 2 mps 748 mmHg 62%
19:00 +10°C° 0.1 mm 2 mps 748 mmHg 71%
20:00 +9°C° 0.1 mm 2 mps 749 mmHg 75%
21:00 +8°C° 0.1 mm 2 mps 749 mmHg 80%
22:00 +7°C° 0.1 mm 2 mps 749 mmHg 85%
23:00 +5°C° 0.2 mm 3 mps 749 mmHg 86%

Tomorrow, 22 April, Thursday

Time Temperature Precipitation Wind Pressure Humidity
00:00 +5°C° 0.2 mm 3 mps 749 mmHg 87%
01:00 +4°C° 0.2 mm 3 mps 749 mmHg 89%
02:00 +3°C° 0 mm 4 mps 749 mmHg 88%
03:00 +3°C° 0 mm 4 mps 749 mmHg 86%
04:00 +1°C° 0 mm 4 mps 749 mmHg 85%
05:00 +1°C° 0 mm 5 mps 749 mmHg 82%
06:00 +1°C° 0 mm 6 mps 749 mmHg 78%
07:00 +2°C° 0 mm 6 mps 749 mmHg 75%
08:00 +2°C° 0 mm 7 mps 749 mmHg 72%
09:00 +3°C° 0 mm 7 mps 749 mmHg 69%
10:00 +3°C° 0 mm 7 mps 750 mmHg 66%
11:00 +4°C° 0.2 mm 7 mps 750 mmHg 67%
12:00 +4°C° 0.2 mm 7 mps 750 mmHg 68%
13:00 +4°C° 0.2 mm 7 mps 750 mmHg 69%
14:00 +4°C° 0.4 mm 7 mps 750 mmHg 68%
15:00 +4°C° 0.4 mm 7 mps 750 mmHg 67%
16:00 +4°C° 0.4 mm 7 mps 750 mmHg 66%
17:00 +3°C° 0 mm 6 mps 750 mmHg 69%
18:00 +2°C° 0 mm 6 mps 750 mmHg 73%
19:00 +1°C° 0 mm 5 mps 750 mmHg 76%
20:00 +1°C° 0 mm 5 mps 751 mmHg 78%
21:00 0°C° 0 mm 5 mps 751 mmHg 79%
22:00 0°C° 0 mm 5 mps 751 mmHg 80%
23:00 0°C° 0 mm 5 mps 751 mmHg 82%

Day after tomorrow, 23 April, Friday

Time Temperature Precipitation Wind Pressure Humidity
00:00 0°C° 0 mm 5 mps 751 mmHg 83%
01:00 0°C° 0 mm 5 mps 751 mmHg 84%
02:00 0°C° 0 mm 5 mps 751 mmHg 83%
03:00 0°C° 0 mm 5 mps 751 mmHg 82%
04:00 0°C° 0 mm 5 mps 751 mmHg 82%
05:00 0°C° 0 mm 5 mps 751 mmHg 78%
06:00 +1°C° 0 mm 5 mps 752 mmHg 74%
07:00 +2°C° 0 mm 6 mps 752 mmHg 70%
08:00 +3°C° 0.2 mm 6 mps 752 mmHg 64%
09:00 +4°C° 0.2 mm 6 mps 752 mmHg 57%
10:00 +5°C° 0.2 mm 7 mps 753 mmHg 50%
11:00 +5°C° 0.1 mm 7 mps 753 mmHg 49%
12:00 +5°C° 0.1 mm 7 mps 753 mmHg 48%
13:00 +5°C° 0.1 mm 7 mps 754 mmHg 47%
14:00 +5°C° 0 mm 7 mps 754 mmHg 50%
15:00 +4°C° 0 mm 7 mps 754 mmHg 52%
16:00 +4°C° 0 mm 7 mps 755 mmHg 55%
17:00 +3°C° 0 mm 6 mps 755 mmHg 59%
18:00 +2°C° 0 mm 5 mps 756 mmHg 64%
19:00 0°C° 0 mm 4 mps 756 mmHg 68%
20:00 0°C° 0 mm 4 mps 756 mmHg 70%
21:00 0°C° 0 mm 4 mps 756 mmHg 71%
22:00 0°C° 0 mm 4 mps 756 mmHg 73%
23:00 -1°C° 0 mm 4 mps 756 mmHg 73%

24 April, Saturday

Time Temperature Precipitation Wind Pressure Humidity
00:00 -1°C° 0 mm 4 mps 756 mmHg 73%
01:00 -1°C° 0 mm 4 mps 756 mmHg 73%
02:00 0°C° 0 mm 3 mps 756 mmHg 74%
03:00 0°C° 0 mm 3 mps 756 mmHg 76%
04:00 0°C° 0 mm 3 mps 756 mmHg 77%
05:00 +1°C° 0.1 mm 3 mps 756 mmHg 74%
06:00 +1°C° 0.1 mm 4 mps 756 mmHg 71%
07:00 +3°C° 0.1 mm 4 mps 756 mmHg 67%
08:00 +3°C° 0.2 mm 5 mps 756 mmHg 62%
09:00 +4°C° 0.2 mm 6 mps 756 mmHg 57%
10:00 +4°C° 0.2 mm 7 mps 756 mmHg 52%
11:00 +5°C° 0.1 mm 7 mps 756 mmHg 49%
12:00 +5°C° 0.1 mm 7 mps 756 mmHg 45%
13:00 +5°C° 0.1 mm 7 mps 756 mmHg 42%
14:00 +4°C° 0.1 mm 7 mps 756 mmHg 45%
15:00 +4°C° 0.1 mm 7 mps 756 mmHg 48%
16:00 +3°C° 0.1 mm 7 mps 756 mmHg 51%
17:00 +2°C° 0 mm 6 mps 756 mmHg 58%
18:00 +1°C° 0 mm 6 mps 757 mmHg 64%
19:00 0°C° 0 mm 5 mps 757 mmHg 71%
20:00 -1°C° 0 mm 5 mps 757 mmHg 73%
21:00 -1°C° 0 mm 5 mps 757 mmHg 76%
22:00 -1°C° 0 mm 4 mps 757 mmHg 78%
23:00 -1°C° 0 mm 4 mps 757 mmHg 78%

25 April, Sunday

Time Temperature Precipitation Wind Pressure Humidity
00:00 -1°C° 0 mm 5 mps 757 mmHg 79%
01:00 -1°C° 0 mm 5 mps 757 mmHg 79%
02:00 -2°C° 0.1 mm 5 mps 756 mmHg 80%
03:00 -2°C° 0.1 mm 5 mps 756 mmHg 81%
04:00 -2°C° 0.1 mm 5 mps 756 mmHg 83%
05:00 -1°C° 0 mm 5 mps 756 mmHg 78%
06:00 +1°C° 0 mm 6 mps 756 mmHg 74%
07:00 +2°C° 0 mm 6 mps 756 mmHg 70%
08:00 +2°C° 0.1 mm 6 mps 756 mmHg 64%
09:00 +3°C° 0.1 mm 7 mps 756 mmHg 57%
10:00 +4°C° 0.1 mm 7 mps 756 mmHg 51%
11:00 +4°C° 0.1 mm 7 mps 756 mmHg 50%
12:00 +4°C° 0.1 mm 7 mps 756 mmHg 50%
13:00 +4°C° 0.1 mm 7 mps 756 mmHg 49%
14:00 +4°C° 0 mm 7 mps 756 mmHg 53%
15:00 +3°C° 0 mm 7 mps 756 mmHg 57%
16:00 +3°C° 0 mm 7 mps 756 mmHg 61%
17:00 +2°C° 0 mm 6 mps 756 mmHg 66%
18:00 +1°C° 0 mm 5 mps 756 mmHg 71%
19:00 0°C° 0 mm 5 mps 757 mmHg 77%
20:00 -1°C° 0.1 mm 4 mps 756 mmHg 78%
21:00 -1°C° 0.1 mm 4 mps 756 mmHg 80%
22:00 -1°C° 0.1 mm 4 mps 756 mmHg 81%
23:00 -1°C° 0.3 mm 4 mps 756 mmHg 82%

26 April, Monday

Time Temperature Precipitation Wind Pressure Humidity
00:00 -1°C° 0.3 mm 5 mps 755 mmHg 83%
01:00 -1°C° 0.3 mm 5 mps 755 mmHg 84%
02:00 -1°C° 0.3 mm 5 mps 755 mmHg 88%
03:00 -1°C° 0.3 mm 5 mps 755 mmHg 92%
04:00 -1°C° 0.3 mm 5 mps 755 mmHg 96%
05:00 0°C° 0.1 mm 5 mps 755 mmHg 95%
06:00 0°C° 0.1 mm 5 mps 755 mmHg 94%
07:00 0°C° 0.1 mm 5 mps 755 mmHg 92%
08:00 +1°C° 0.1 mm 5 mps 756 mmHg 91%
09:00 +2°C° 0.1 mm 5 mps 756 mmHg 90%
10:00 +2°C° 0.1 mm 5 mps 756 mmHg 89%
11:00 +2°C° 0.1 mm 5 mps 756 mmHg 90%
12:00 +2°C° 0.1 mm 5 mps 756 mmHg 90%
13:00 +3°C° 0.1 mm 5 mps 756 mmHg 90%
14:00 +4°C° 0 mm 4 mps 756 mmHg 90%
15:00 +4°C° 0 mm 4 mps 756 mmHg 89%
16:00 +4°C° 0 mm 4 mps 756 mmHg 88%
17:00 +3°C° 0 mm 3 mps 756 mmHg 89%
18:00 +3°C° 0 mm 3 mps 756 mmHg 90%
19:00 +3°C° 0 mm 2 mps 756 mmHg 91%
20:00 +3°C° 0 mm 1 mps 756 mmHg 91%
21:00 +3°C° 0 mm 1 mps 756 mmHg 92%
22:00 +2°C° 0 mm 1 mps 756 mmHg 93%
23:00 +1°C° 0 mm 1 mps 756 mmHg 93%
Show more